KE0RUZ Weather Reports


Display with metric or nautical units.
time (UTC)temp
F
wind
direction
speed
MPH
gust
MPH
rain 1hr
in
rain 24hr
in
rain mn
in
humidity
%
barometer
mb
20260506211552 62 30 5.0 13.0 0.00 0.04 0.01 52 1018.0
20260506210047 62 34 3.0 11.0 0.00 0.04 0.01 51 1017.7
20260506204539 62 27 2.0 9.0 0.00 0.04 0.01 52 1017.9
20260506203049 60 345 6.0 11.0 0.00 0.04 0.01 50 1018.2
20260506201547 61 101 2.0 8.0 0.00 0.04 0.01 54 1018.2
20260506200045 60 32 5.0 12.0 0.00 0.04 0.01 52 1018.4
20260506194546 61 16 4.0 12.0 0.00 0.04 0.01 52 1018.6
20260506193048 59 37 4.0 13.0 0.00 0.04 0.01 53 1018.8
20260506191553 60 39 2.0 13.0 0.00 0.04 0.01 54 1019.0
20260506190050 59 98 3.0 13.0 0.00 0.04 0.01 56 1019.1
20260506184543 59 17 4.0 9.0 0.00 0.05 0.01 57 1019.3
20260506183051 60 93 2.0 10.0 0.00 0.05 0.01 61 1019.5
20260506181601 59 65 2.0 10.0 0.00 0.05 0.01 56 1019.8
20260506180047 59 80 3.0 7.0 0.00 0.05 0.01 56 1020.2
20260506174543 59 32 3.0 11.0 0.00 0.05 0.01 53 1020.2
20260506173104 58 27 5.0 12.0 0.00 0.05 0.01 55 1020.0
20260506171547 58 44 2.0 13.0 0.00 0.05 0.01 55 1020.2
20260506170051 57 89 2.0 8.0 0.00 0.05 0.01 57 1020.3
20260506164543 57 37 3.0 10.0 0.00 0.05 0.01 57 1020.2
20260506163055 56 49 2.0 10.0 0.00 0.05 0.01 60 1019.8
20260506161541 56 338 2.0 7.0 0.00 0.05 0.01 62 1019.2
20260506160050 55 78 2.0 8.0 0.00 0.05 0.01 60 1018.9
20260506154600 55 31 2.0 9.0 0.00 0.05 0.01 60 1019.0
20260506153046 55 98 2.0 9.0 0.00 0.05 0.01 67 1019.1
20260506151544 53 141 2.0 8.0 0.00 0.05 0.01 66 1019.2
20260506150041 53 123 2.0 12.0 0.00 0.05 0.01 72 1018.9
20260506144553 52 93 3.0 11.0 0.00 0.06 0.01 74 1018.7
20260506143050 51 48 3.0 8.0 0.00 0.06 0.01 74 1018.7
20260506141551 49 105 1.0 8.0 0.00 0.06 0.01 80 1019.1
20260506140043 48 135 1.0 7.0 0.00 0.06 0.01 81 1019.1
20260506134550 48 0 0.0 4.0 0.00 0.06 0.01 82 1019.2
20260506133107 47 99 3.0 7.0 0.00 0.06 0.01 81 1018.9
20260506131545 46 89 3.0 9.0 0.00 0.06 0.01 82 1018.8
20260506130044 46 70 3.0 6.0 0.00 0.06 0.01 84 1018.9
20260506124555 46 120 1.0 5.0 0.00 0.06 0.01 86 1018.7
20260506123050 45 68 0.0 6.0 0.00 0.06 0.01 87 1019.2
20260506121547 45 93 0.0 5.0 0.00 0.06 0.01 88 1018.9
20260506120049 45 46 1.0 6.0 0.00 0.06 0.01 89 1019.0
20260506114548 45 22 2.0 7.0 0.00 0.06 0.01 90 1018.6
20260506113043 45 25 3.0 6.0 0.00 0.06 0.01 91 1018.4
20260506111543 45 26 2.0 5.0 0.00 0.06 0.01 91 1018.4
20260506110054 45 27 2.0 5.0 0.00 0.06 0.01 92 1017.9
20260506104614 45 18 3.0 7.0 0.00 0.06 0.01 92 1017.7
20260506103050 45 32 3.0 5.0 0.00 0.06 0.01 92 1017.3
20260506101548 45 25 3.0 6.0 0.00 0.06 0.01 92 1017.4
20260506100045 45 26 1.0 4.0 0.00 0.06 0.01 92 1017.1
20260506094552 45 36 1.0 2.0 0.00 0.06 0.01 92 1017.0
20260506093051 45 31 1.0 4.0 0.01 0.06 0.01 91 1017.0
20260506091545 45 352 2.0 3.0 0.01 0.06 0.01 91 1017.1
20260506090050 45 25 0.0 3.0 0.01 0.06 0.01 91 1016.4
20260506084543 45 37 0.0 2.0 0.01 0.06 0.01 90 1015.5
20260506083048 45 0 0.0 3.0 0.00 0.05 0.00 90 1016.1
20260506081542 45 105 2.0 8.0 0.00 0.05 0.00 89 1014.9
20260506073038 45 0 1.0 3.0 0.00 0.18 0.00 88 1014.9
20260506071546 45 0 0.0 6.0 0.00 0.18 0.00 88 1014.9
20260506061543 46 0 1.0 3.0 0.00 0.37 0.00 87 1016.0
20260506044609 46 49 1.0 8.0 0.00 0.37 0.37 88 1015.7
20260506043055 46 38 1.0 7.0 0.00 0.37 0.37 88 1014.9
20260506041547 46 0 1.0 6.0 0.00 0.37 0.37 89 1014.9
20260506040051 46 36 2.0 10.0 0.00 0.37 0.37 89 1015.0
20260506034544 46 30 1.0 9.0 0.00 0.37 0.37 90 1014.6
20260506033047 46 338 0.0 4.0 0.00 0.37 0.37 91 1014.3
20260506031540 46 75 1.0 10.0 0.00 0.37 0.37 91 1014.1
20260506030046 46 0 2.0 9.0 0.00 0.37 0.37 91 1014.2
20260506024740 46 28 4.0 9.0 0.00 0.37 0.37 92 1014.4
20260506023046 46 35 1.0 6.0 0.00 0.37 0.37 92 1014.1
20260506021556 45 23 2.0 7.0 0.00 0.37 0.37 92 1013.7
20260506020051 45 49 2.0 8.0 0.00 0.37 0.37 93 1013.4
20260506014553 45 57 2.0 9.0 0.00 0.37 0.37 93 1013.4
20260506013048 46 31 3.0 8.0 0.00 0.37 0.37 93 1013.2
20260506011553 46 33 3.0 6.0 0.00 0.37 0.37 93 1013.2
20260506004544 46 0 1.0 5.0 0.02 0.37 0.37 93 1012.6
20260506003043 46 43 0.0 6.0 0.03 0.37 0.37 92 1012.8
20260506001543 46 75 2.0 7.0 0.03 0.37 0.37 91 1012.3
20260506000042 46 38 2.0 7.0 0.02 0.36 0.36 90 1012.3
20260505234606 47 32 3.0 10.0 0.01 0.35 0.35 88 1012.4
20260505233048 47 342 3.0 10.0 0.00 0.34 0.34 86 1012.2
20260505231544 48 124 3.0 8.0 0.00 0.34 0.34 85 1011.9
20260505230047 48 27 3.0 10.0 0.00 0.34 0.34 84 1011.7
20260505224539 48 40 4.0 13.0 0.00 0.34 0.34 84 1011.6
20260505223102 48 34 2.0 12.0 0.00 0.34 0.34 83 1011.4
20260505221547 48 113 4.0 14.0 0.00 0.34 0.34 83 1011.4
20260505220046 49 213 7.0 15.0 0.00 0.34 0.34 81 1011.4
20260505214552 49 41 5.0 13.0 0.00 0.34 0.34 80 1011.1
20260505213055 49 52 3.0 13.0 0.00 0.34 0.34 81 1011.4